GW0986 Weather Reports


Display with metric or nautical units.
time (UTC)temp
F
wind
direction
speed
MPH
gust
MPH
rain 1hr
in
rain 24hr
in
rain mn
in
humidity
%
barometer
mb
20260503191601 62 0 0.0 2.0 0.00 0.01 0.01 74 1014.7
20260503190052 62 0 0.0 5.0 0.00 0.01 0.01 75 1014.8
20260503184552 62 0 0.0 4.0 0.00 0.01 0.01 74 1014.7
20260503183056 62 0 0.0 3.0 0.00 0.01 0.01 75 1014.9
20260503181605 62 0 0.0 4.0 0.00 0.01 0.01 75 1014.9
20260503180054 61 0 0.0 3.0 0.00 0.01 0.01 75 1014.8
20260503174606 61 113 0.0 5.0 0.00 0.01 0.01 76 1014.8
20260503173054 61 218 0.0 3.0 0.00 0.01 0.01 79 1014.7
20260503171550 61 0 0.0 3.0 0.00 0.01 0.01 81 1014.5
20260503170105 61 128 0.0 3.0 0.00 0.01 0.01 81 1014.5
20260503120105 56 0 0.0 1.0 0.00 0.01 0.01 94 1012.7
20260503081553 58 0 0.0 0.0 0.00 0.00 0.00 88 1013.4
20260503071603 58 0 0.0 1.0 0.00 0.00 0.00 88 1013.4
20260503070108 59 0 0.0 1.0 0.00 0.00 0.00 88 1013.4
20260503054559 57 0 0.0 0.0 0.00 0.00 0.00 88 1013.1
20260503053057 58 0 0.0 0.0 0.00 0.00 0.00 88 1013.1
20260503051552 58 0 0.0 0.0 0.00 0.00 0.00 87 1013.2
20260503050101 59 0 0.0 0.0 0.00 0.00 0.00 86 1013.2
20260503044618 59 0 0.0 0.0 0.00 0.00 0.00 85 1013.1
20260503043058 60 0 0.0 0.0 0.00 0.00 0.00 84 1013.1
20260503041614 60 0 0.0 0.0 0.00 0.00 0.00 83 1012.8
20260503040054 60 0 0.0 1.0 0.00 0.00 0.00 83 1012.5
20260503034557 61 0 0.0 2.0 0.00 0.00 0.00 82 1012.4
20260503033104 61 0 0.0 4.0 0.00 0.00 0.00 81 1012.0
20260503031553 61 0 1.0 3.0 0.00 0.00 0.00 80 1011.8
20260503030100 62 169 0.0 6.0 0.00 0.00 0.00 78 1011.7
20260503024601 63 244 0.0 3.0 0.00 0.00 0.00 76 1011.5
20260503023056 64 177 0.0 4.0 0.00 0.00 0.00 75 1011.2
20260503021557 64 0 0.0 8.0 0.00 0.00 0.00 75 1011.0
20260503020056 65 246 1.0 6.0 0.00 0.00 0.00 73 1010.9
20260503014552 66 0 0.0 3.0 0.00 0.00 0.00 72 1010.8
20260503013058 67 284 2.0 9.0 0.00 0.00 0.00 70 1010.6
20260503011602 68 218 1.0 6.0 0.00 0.00 0.00 68 1010.8
20260503010058 69 0 1.0 5.0 0.00 0.00 0.00 67 1010.7
20260503004601 70 0 0.0 6.0 0.00 0.00 0.00 66 1010.7
20260503003106 71 190 0.0 7.0 0.00 0.00 0.00 64 1010.9
20260503001604 71 143 0.0 6.0 0.00 0.00 0.00 64 1010.9
20260503000055 72 243 1.0 4.0 0.00 0.00 0.00 63 1010.9
20260502234555 72 153 2.0 6.0 0.00 0.00 0.00 64 1011.0
20260502233048 72 0 1.0 10.0 0.00 0.00 0.00 64 1011.0
20260502231556 73 255 1.0 8.0 0.00 0.00 0.00 64 1010.9
20260502230051 73 284 1.0 7.0 0.00 0.00 0.00 62 1011.1
20260502224551 73 259 1.0 7.0 0.00 0.00 0.00 62 1011.5
20260502223049 73 229 3.0 10.0 0.00 0.00 0.00 63 1011.7
20260502221548 74 182 3.0 10.0 0.00 0.00 0.00 61 1012.0
20260502220135 75 238 0.0 8.0 0.00 0.00 0.00 62 1012.2
20260502214549 74 0 2.0 9.0 0.00 0.00 0.00 62 1012.3
20260502213058 75 262 2.0 11.0 0.00 0.00 0.00 61 1012.4
20260502211556 74 150 2.0 7.0 0.00 0.00 0.00 63 1012.5
20260502210101 73 225 1.0 8.0 0.00 0.00 0.00 64 1012.6
20260502204559 74 279 1.0 7.0 0.00 0.00 0.00 64 1012.8
20260502203105 73 156 1.0 10.0 0.00 0.00 0.00 65 1012.8
20260502201554 72 96 1.0 9.0 0.00 0.00 0.00 67 1012.9
20260502200055 72 220 2.0 6.0 0.00 0.00 0.00 67 1013.0
20260502194554 71 166 1.0 5.0 0.00 0.00 0.00 69 1013.4
20260502193054 71 273 0.0 7.0 0.00 0.00 0.00 69 1013.8